This demonstration page uses our WeatherBlox Daily Observations layout. Learn more.

Left ArrowRight Arrow

Hourly Observations for November 10, 2015

Temp ( °F °C ) Dew Point ( °F °C ) Humidity (%) Winds ( mph kmh ) Pressure ( in mb ) Visibility ( mi km ) Precip ( " mm )
12:31 am 00:31 Cloudy with Light Rain 46 7.8 45 7.2 96 96 Calm 30.09 1019 3 4 0.02 0.51
12:46 am 00:46 Cloudy with Light Rain 46 7.8 45 7.2 96 96 Calm 30.09 1019 3 4 0.03 0.76
12:53 am 00:53 Cloudy with Light Rain 46 7.8 45 7.2 96 96 W 3 6 30.09 1019 3 4 0.03 0.76
1:08 am 01:08 Cloudy with Light Rain 46 7.8 45 7.2 96 96 W 3 6 30.09 1019 3 4 0.01 0.25
1:18 am 01:18 Cloudy with Light Rain 46 7.8 44 6.7 93 93 NW 6 9 30.09 1019 4 6 0.01 0.25
1:26 am 01:26 Cloudy with Light Rain 46 7.8 44 6.7 93 93 WNW 6 9 30.09 1019 4 6 0.01 0.25
1:53 am 01:53 Cloudy with Mist and Fog 46 7.8 44 6.7 93 93 WNW 6 9 30.09 1019 4 6 0.02 0.51
2:13 am 02:13 Cloudy with Light Rain 46 7.8 44 6.7 93 93 WNW 7 11 30.09 1019 5 8 0.00 0.03
2:44 am 02:44 Cloudy with Light Rain 46 7.8 44 6.7 93 93 NW 8 13 30.09 1019 4 6 0.00 0.03
2:51 am 02:51 Cloudy with Mist and Fog 46 8 45 7 93 93 WNW 7 11 30.09 1019 5 8 0.00 0.03
2:53 am 02:53 Cloudy with Mist and Fog 46 7.8 44 6.7 93 93 WNW 8 13 30.10 1019 5 8 0.00 0.03
3:18 am 03:18 Cloudy with Mist and Fog 45 7.2 44 6.7 97 97 NW 7 11 30.09 1019 5 8 0.00 0.00
3:49 am 03:49 Cloudy with Mist and Fog 45 7 43 6 93 93 WNW 8 13 30.09 1019 4 6 0.01 0.25
3:53 am 03:53 Cloudy with Light Rain 45 7.2 43 6.1 93 93 WNW 7 11 30.09 1019 3 5 0.01 0.25
4:04 am 04:04 Cloudy with Light Rain 45 7.2 43 6.1 93 93 WNW 8 13 30.09 1019 3 4 0.00 0.03
4:37 am 04:37 Cloudy with Mist and Fog 45 7.2 44 6.7 97 97 NW 8 13 30.09 1019 3 5 0.00 0.03
4:53 am 04:53 Cloudy with Mist and Fog 45 7.2 44 6.7 97 97 WNW 8 13 30.09 1019 4 6 0.00 0.03
5:53 am 05:53 Cloudy 45 7.2 43 6.1 93 93 NW 8 13 30.10 1019 7 11 0.00 0.00
6:07 am 06:07 Cloudy 45 7.2 43 6.1 93 93 NNW 6 9 30.09 1019 7 11 0.00 0.00
6:15 am 06:15 Cloudy 45 7.2 43 6.1 93 93 WNW 7 11 30.09 1019 7 11 0.00 0.00
6:25 am 06:25 Cloudy 45 7.2 43 6.1 93 93 WNW 6 9 30.09 1019 7 11 0.00 0.00
6:35 am 06:35 Cloudy 45 7.2 43 6.1 93 93 WNW 3 6 30.09 1019 7 11 0.00 0.00
6:53 am 06:53 Cloudy 45 7.2 43 6.1 93 93 W 5 7 30.11 1020 7 11 0.00 0.00
7:53 am 07:53 Cloudy with Mist and Fog 45 7.2 43 6.1 93 93 W 3 6 30.12 1020 6 10 0.00 0.00
8:53 am 08:53 Cloudy with Mist and Fog 46 7.8 44 6.7 93 93 WNW 5 7 30.13 1020 3 4 0.00 0.00
9:10 am 09:10 Cloudy with Mist and Fog 46 7.8 44 6.7 93 93 WNW 6 9 30.15 1021 2 3 0.00 0.00
9:26 am 09:26 Cloudy with Mist and Fog 46 7.8 44 6.7 93 93 WNW 6 9 30.12 1020 3 4 0.00 0.00
9:35 am 09:35 Cloudy with Mist and Fog 46 7.8 45 7.2 96 96 W 5 7 30.12 1020 4 6 0.00 0.00
9:51 am 09:51 Cloudy with Mist and Fog 46 8 45 7 93 93 WNW 3 6 30.12 1020 6 10 0.00 0.00
9:53 am 09:53 Cloudy with Mist and Fog 47 8.3 45 7.2 93 93 W 5 7 30.13 1020 6 10 0.00 0.00
10:06 am 10:06 Cloudy with Mist and Fog 47 8.3 44 6.7 90 90 W 7 11 30.12 1020 6 10 0.00 0.00
10:53 am 10:53 Cloudy 48 8.9 43 6.1 83 83 WNW 9 15 30.14 1021 8 13 0.00 0.00
11:53 am 11:53 Cloudy 48 8.9 43 6.1 83 83 WNW 6 9 30.14 1021 10 16 0.00 0.00
12:53 pm 12:53 Cloudy 48 8.9 44 6.7 86 86 WNW 8 13 30.12 1020 10 16 0.00 0.00
1:36 pm 13:36 Cloudy 49 9.4 43 6.1 80 80 W 6 9 30.09 1019 10 16 0.00 0.00
1:53 pm 13:53 Cloudy 50 10 44 6.7 80 80 WNW 7 11 30.10 1019 10 16 0.00 0.00
2:53 pm 14:53 Cloudy 50 10 43 6.1 77 77 W 6 9 30.10 1019 10 16 0.00 0.00
3:43 pm 15:43 Mostly Cloudy 50 10 43 6.1 77 77 WNW 6 9 30.09 1019 10 16 0.00 0.00
3:53 pm 15:53 Mostly Cloudy 51 10.6 43 6.1 74 74 NW 7 11 30.09 1019 10 16 0.00 0.00
4:53 pm 16:53 Cloudy 51 10.6 42 5.6 71 71 Calm 30.08 1019 10 16 0.00 0.00
5:53 pm 17:53 Mostly Clear 43 6.1 41 5 93 93 Calm 30.09 1019 10 16 0.00 0.00
6:53 pm 18:53 Clear 39 3.9 37 2.8 93 93 Calm 30.10 1019 9 14 0.00 0.00
7:53 pm 19:53 Clear 38 3.3 37 2.8 97 97 Calm 30.09 1019 10 16 0.00 0.00
8:53 pm 20:53 Clear 36 2.2 34 1.1 93 93 Calm 30.09 1019 7 11 0.00 0.00
9:09 pm 21:09 Clear with Mist and Fog 35 1.7 34 1.1 96 96 Calm 30.09 1019 3 4 0.00 0.00
9:17 pm 21:17 Clear with Mist and Fog 35 1.7 34 1.1 96 96 Calm 30.09 1019 2 2 0.00 0.00
9:21 pm 21:21 Clear with Mist and Fog 35 1.7 34 1.1 96 96 Calm 30.09 1019 2 3 0.00 0.00
9:30 pm 21:30 Clear with Mist and Fog 35 1.7 34 1.1 96 96 Calm 30.09 1019 6 10 0.00 0.00
9:53 pm 21:53 Clear with Mist and Fog 34 1.1 33 0.6 97 97 Calm 30.09 1019 3 5 0.00 0.00
9:56 pm 21:56 Clear with Mist and Fog 34 1.1 33 0.6 97 97 Calm 30.12 1020 2 3 0.00 0.00
10:01 pm 22:01 Clear with Mist and Fog 34 1.1 33 0.6 97 97 Calm 30.12 1020 1 1 0.00 0.00
10:20 pm 22:20 Clear with Mist and Fog 34 1.1 33 0.6 97 97 Calm 30.12 1020 2 3 0.00 0.00
10:22 pm 22:22 Mostly Clear with Mist and Fog 34 1.1 33 0.6 97 97 Calm 30.12 1020 4 6 0.00 0.00
10:26 pm 22:26 Mostly Clear with Mist and Fog 34 1.1 33 0.6 97 97 Calm 30.12 1020 2 3 0.00 0.00
10:29 pm 22:29 Mostly Cloudy with Mist and Fog 34 1.1 33 0.6 97 97 Calm 30.12 1020 1 2 0.00 0.00
10:36 pm 22:36 Mostly Cloudy with Mist and Fog 34 1.1 33 0.6 97 97 Calm 30.12 1020 1 1 0.00 0.00
10:40 pm 22:40 Clear with Mist and Fog 34 1.1 33 0.6 97 97 Calm 30.12 1020 1 2 0.00 0.00
10:43 pm 22:43 Clear with Mist and Fog 34 1.1 33 0.6 97 97 Calm 30.12 1020 3 4 0.00 0.00
10:45 pm 22:45 Mostly Clear with Mist and Fog 34 1.1 33 0.6 97 97 Calm 30.12 1020 5 8 0.00 0.00
10:53 pm 22:53 Mostly Clear with Mist and Fog 34 1.1 33 0.6 97 97 Calm 30.09 1019 4 6 0.00 0.00
11:04 pm 23:04 Mostly Clear with Mist and Fog 34 1.1 33 0.6 97 97 Calm 30.12 1020 2 3 0.00 0.00
11:09 pm 23:09 Mostly Cloudy with Mist and Fog 33 0.6 32 0 96 96 Calm 30.12 1020 1 2 0.00 0.00
11:22 pm 23:22 Clear with Mist and Fog 33 0.6 32 0 96 96 Calm 30.12 1020 2 2 0.00 0.00
11:26 pm 23:26 Clear with Mist and Fog 33 0.6 32 0 96 96 Calm 30.12 1020 2 3 0.00 0.00
11:41 pm 23:41 Clear with Mist and Fog 33 0.6 32 0 96 96 Calm 30.12 1020 2 2 0.00 0.00
11:53 pm 23:53 Mostly Clear with Mist and Fog 33 0.6 32 0 96 96 Calm 30.08 1019 2 3 0.00 0.00

Powered by AerisWeather